This is the latest recevied weather packets stored in our database for station/object K5OBH. If no packets are shown the sender has not sent any weather packets the latest 10 day(s).
| Time | Temp. | Humidity | Pressure | Rain* | Wind** | Luminosity | Snow |
|---|---|---|---|---|---|---|---|
| 1777913290 | 23.33° C | 56% | 1006.8 hPa | 0 mm | - | 635 W/m² | - |
| 1777912987 | 23.33° C | 55% | 1006.8 hPa | 0 mm | - | 611 W/m² | - |
| 1777912683 | 23.33° C | 56% | 1006.9 hPa | 0 mm | - | 619 W/m² | - |
| 1777912379 | 22.78° C | 55% | 1007 hPa | 0 mm | - | 581 W/m² | - |
| 1777912075 | 22.78° C | 55% | 1006.9 hPa | 0 mm | - | 599 W/m² | - |
| 1777911771 | 22.78° C | 55% | 1007.1 hPa | 0 mm | - | 569 W/m² | - |
| 1777911468 | 22.78° C | 55% | 1007.2 hPa | 0 mm | - | 546 W/m² | - |
| 1777911165 | 22.78° C | 55% | 1007.3 hPa | 0 mm | - | 546 W/m² | - |
| 1777910863 | 22.78° C | 55% | 1007.1 hPa | 0 mm | - | 555 W/m² | - |
| 1777910559 | 22.78° C | 56% | 1007.2 hPa | 0 mm | - | 531 W/m² | - |
| 1777910256 | 22.78° C | 56% | 1006.9 hPa | 0 mm | - | 513 W/m² | - |
| 1777909953 | 22.22° C | 56% | 1007.2 hPa | 0 mm | - | 536 W/m² | - |
| 1777909650 | 22.22° C | 57% | 1007.3 hPa | 0 mm | - | 502 W/m² | - |
| 1777909348 | 21.67° C | 58% | 1007.4 hPa | 0 mm | - | 451 W/m² | - |
| 1777909045 | 21.67° C | 57% | 1007.3 hPa | 0 mm | - | 451 W/m² | - |
| 1777908743 | 21.67° C | 58% | 1007.3 hPa | 0 mm | - | 473 W/m² | - |
| 1777908440 | 21.11° C | 58% | 1007.2 hPa | 0 mm | - | 455 W/m² | - |
| 1777908136 | 21.11° C | 57% | 1007.3 hPa | 0 mm | - | 447 W/m² | - |
| 1777907832 | 21.11° C | 58% | 1007.3 hPa | 0 mm | - | 392 W/m² | - |
| 1777907528 | 21.11° C | 58% | 1007.5 hPa | 0 mm | - | 422 W/m² | - |
| 1777907224 | 21.11° C | 57% | 1007.7 hPa | 0 mm | - | 391 W/m² | - |
| 1777906921 | 20.56° C | 58% | 1007.8 hPa | 0 mm | - | 359 W/m² | - |
| 1777906619 | 20.56° C | 58% | 1007.7 hPa | 0 mm | - | 372 W/m² | - |
| 1777906314 | 21.11° C | 57% | 1007.5 hPa | 0 mm | - | 360 W/m² | - |
| 1777906011 | 20.56° C | 58% | 1007.9 hPa | 0 mm | - | 339 W/m² | - |
* Rain latest hour (hover to see other rain measurements)
** Current wind speed in m/s (hover to see current wind gust speed)